EW7244 Weather Reports


time (UTC)temp
C
wind
direction
speed
KPH
gust
KPH
rain 1hr
cm
rain 24hr
cm
rain mn
cm
humidity
%
barometer
mb
20260506114551 12 167 0.0 0.0 0.03 0.91 0.61 92 1007.4
20260506113043 12 113 0.0 0.0 0.00 0.89 0.61 91 1007.4
20260506111534 12 113 0.0 0.0 0.00 0.89 0.61 90 1007.5
20260506110017 12 101 0.0 0.0 0.00 0.89 0.61 91 1007.7
20260506104504 12 159 0.0 0.0 0.00 1.07 0.61 91 1007.8
20260506103012 12 96 0.0 0.0 0.00 1.07 0.61 90 1008.0
20260506101558 12 96 0.0 0.0 0.00 1.07 0.61 92 1008.0
20260506100050 12 96 0.0 0.0 0.00 1.07 0.61 93 1008.1
20260506094501 11 96 0.0 0.0 0.03 1.09 0.61 95 1007.8
20260506093055 11 96 0.0 0.0 0.05 1.09 0.61 96 1008.1
20260506091544 11 94 0.0 0.0 0.08 1.09 0.61 96 1008.0
20260506090058 11 116 0.0 0.0 0.10 1.09 0.61 96 1008.0
20260506084555 11 150 0.0 0.0 0.10 1.12 0.58 96 1007.9
20260506083107 11 121 0.0 0.0 0.08 1.09 0.53 96 1007.7
20260506081549 11 120 0.0 0.0 0.13 1.07 0.51 96 1007.5
20260506073040 10 318 0.0 0.0 0.33 0.99 0.46 96 1007.8
20260506071514 10 164 0.0 0.0 0.30 0.94 0.41 96 1008.1
20260506061544 10 140 0.0 0.0 0.08 0.64 0.10 96 1007.9
20260506044557 10 75 0.0 0.0 0.00 0.53 0.00 96 1007.8
20260506043044 10 75 0.0 0.0 0.00 0.53 0.00 96 1007.8
20260506041541 10 75 0.0 0.0 0.00 0.53 0.00 96 1007.9
20260506040056 10 312 0.0 0.0 0.00 0.53 0.00 96 1008.2
20260506034548 10 312 0.0 0.0 0.00 0.53 0.00 96 1008.2
20260506033057 10 312 0.0 0.0 0.00 0.53 0.00 95 1008.4
20260506031559 10 312 0.0 0.0 0.00 0.53 0.00 95 1008.4
20260506030047 10 309 0.0 0.0 0.00 0.53 0.00 96 1008.5
20260506024552 10 309 0.0 0.0 0.00 0.53 0.00 96 1008.7
20260506023039 10 309 0.0 0.0 0.00 0.53 0.00 95 1008.6
20260506021555 10 309 0.0 0.0 0.00 0.53 0.00 95 1008.5
20260506020055 10 309 0.0 0.0 0.00 0.53 0.00 95 1008.5
20260506014540 10 309 0.0 0.0 0.00 0.53 0.00 95 1008.9
20260506013057 10 309 0.0 0.0 0.00 0.53 0.00 95 1008.8
20260506011616 10 309 0.0 0.0 0.00 0.53 0.00 95 1009.0
20260506010038 10 309 0.0 0.0 0.00 0.53 0.00 95 1008.8
20260506004526 10 309 0.0 0.0 0.00 0.53 0.00 95 1008.8
20260506003013 10 309 0.0 0.0 0.00 0.53 0.00 95 1008.8
20260506001604 10 309 0.0 1.6 0.00 0.53 0.00 95 1009.0
20260506000110 10 309 0.0 0.0 0.00 0.53 0.00 95 1009.0
20260505234536 10 309 0.0 0.0 0.00 0.53 0.00 95 1009.0
20260505233058 10 309 0.0 0.0 0.00 0.53 0.00 95 1009.1
20260505231553 10 309 0.0 0.0 0.00 0.53 0.00 95 1009.3
20260505224559 10 309 0.0 0.0 0.00 0.53 0.00 95 1009.5
20260505223049 10 309 0.0 0.0 0.00 0.53 0.00 95 1009.5
20260505221549 10 309 0.0 0.0 0.00 0.53 0.00 95 1009.4
20260505220058 10 309 0.0 0.0 0.00 0.53 0.00 95 1009.5
20260505214554 10 126 0.0 0.0 0.00 0.53 0.53 95 1009.5
20260505213044 10 126 0.0 0.0 0.00 0.53 0.53 95 1009.6
20260505211543 10 125 0.0 0.0 0.00 0.53 0.53 95 1009.6
20260505210052 10 125 0.0 0.0 0.00 0.53 0.53 95 1009.7
20260505204542 10 125 0.0 0.0 0.00 0.53 0.53 95 1009.8
20260505203013 11 125 0.0 0.0 0.00 0.53 0.53 95 1009.7
20260505201503 11 126 0.0 0.0 0.00 0.53 0.53 95 1009.8
20260505200050 11 126 0.0 0.0 0.00 0.53 0.53 94 1009.8
20260505194502 11 126 0.0 0.0 0.00 0.53 0.53 95 1009.6
20260505193052 11 126 0.0 0.0 0.00 0.53 0.53 94 1009.7
20260505191600 11 126 0.0 0.0 0.05 0.53 0.53 94 1009.6
20260505190046 11 126 0.0 0.0 0.05 0.53 0.53 94 1009.5
20260505184545 11 126 0.0 0.0 0.08 0.53 0.53 94 1009.4
20260505183056 11 126 0.0 0.0 0.08 0.53 0.53 94 1009.3
20260505181551 11 126 0.0 0.0 0.05 0.51 0.51 94 1009.2
20260505180048 11 126 0.0 0.0 0.03 0.46 0.46 94 1009.1
20260505174558 11 126 0.0 0.0 0.03 0.46 0.46 94 1009.1
20260505173102 11 126 0.0 0.0 0.05 0.46 0.46 93 1009.1
20260505171625 11 126 0.0 0.0 0.05 0.46 0.46 93 1009.0
20260505170017 11 126 0.0 0.0 0.03 0.43 0.43 93 1009.0
20260505164604 11 126 0.0 0.0 0.03 0.43 0.43 92 1009.1
20260505163046 11 126 0.0 0.0 0.00 0.43 0.43 92 1009.2
20260505161525 11 126 0.0 0.0 0.00 0.43 0.43 92 1009.3
20260505153031 11 126 0.0 0.0 0.00 0.43 0.43 92 1009.4
20260505151516 11 126 0.0 0.0 0.00 0.43 0.43 92 1009.4
20260505150126 11 125 0.0 0.0 0.00 0.43 0.43 92 1009.4
20260505124506 12 98 0.0 0.0 0.03 0.36 0.36 92 1009.9
20260505123059 12 98 0.0 0.0 0.05 0.36 0.36 91 1009.8
20260505121624 12 98 0.0 0.0 0.08 0.36 0.36 89 1009.8
20260505120048 12 86 0.0 0.0 0.13 0.36 0.36 89 1009.9